Location: Hoover
(45.1124°N, 103.2678°W)
Time: 17:27:02
(UTC+00:00)

N. Korean satellite - Visible Passes

Search period start: 25 November 2020 00:00
Search period end: 05 December 2020 00:00
Orbit: 452 x 504 km, 97.2° (Epoch: 24 November)

Date Brightness Start Highest point End Pass type
(mag) Time Alt. Az. Time Alt. Az. Time Alt. Az.
25 Nov 8.7 00:07:43 10° SSW 00:10:44 29° W 00:13:47 10° NNW visible
25 Nov 9.6 11:31:49 10° NE 11:34:14 17° E 11:36:38 10° SE visible
25 Nov 7.2 13:04:25 10° N 13:07:39 33° WNW 13:10:54 10° SW visible
26 Nov 6.4 12:37:54 10° N 12:41:28 71° WNW 12:45:04 10° SSW visible
27 Nov 7.4 12:11:40 10° NNE 12:15:12 52° E 12:18:45 10° S visible
28 Nov 9.5 00:22:44 10° SW 00:25:19 20° W 00:27:54 10° NW visible
28 Nov 8.9 11:45:47 10° NE 11:48:49 25° E 11:51:52 10° SSE visible
28 Nov 7.7 13:19:10 10° NNW 13:22:03 23° WNW 13:24:57 10° WSW visible
28 Nov 7.9 23:55:38 10° S 23:58:52 41° W 00:02:11 10° NNW visible
29 Nov 9.9 11:20:40 10° ENE 11:22:20 13° E 11:24:01 10° ESE visible
29 Nov 6.8 12:52:26 10° N 12:55:54 45° WNW 12:59:23 10° SSW visible
30 Nov 6.6 12:26:02 10° NNE 12:29:40 82° ESE 12:33:19 10° S visible
01 Dec 9.8 00:38:03 10° WSW 00:39:50 14° W 00:41:38 10° WNW visible
01 Dec 8.1 11:59:55 10° NNE 12:03:19 37° E 12:06:44 10° SSE visible
01 Dec 8.1 13:34:03 10° NNW 13:36:22 16° WNW 13:38:42 10° WSW visible
02 Dec 8.9 00:10:22 10° SSW 00:13:20 27° W 00:16:21 10° NW visible
02 Dec 9.4 11:34:14 10° NE 11:36:52 19° E 11:39:31 10° SE visible
02 Dec 7.3 13:07:01 10° N 13:10:15 31° WNW 13:13:30 10° SW visible
02 Dec 7.1 23:43:33 10° S 23:46:56 61° W 23:50:23 10° NNW visible
03 Dec 6.5 12:40:26 10° N 12:44:02 65° WNW 12:47:40 10° SSW visible
04 Dec 7.2 12:14:07 10° NNE 12:17:43 57° E 12:21:21 10° S visible
